Location: Fort McMurray
(56.7330°N, 111.3830°W)
Time: 19:34:35
(UTC-06:00)

OTV 5 (USA 277) - Visible Passes

Search period start: 17 June 2018 00:00
Search period end: 27 June 2018 00:00
Orbit: 313 x 320 km, 54.5° (Epoch: 16 June)

Date Brightness Start Highest point End Pass type
(mag) Time Alt. Az. Time Alt. Az. Time Alt. Az.
17 Jun ? 01:08:59 10° WSW 01:11:38 51° S 01:14:17 10° E visible
17 Jun ? 02:43:09 10° W 02:45:44 39° SSW 02:48:19 10° ESE visible
17 Jun ? 23:49:25 10° SW 23:51:56 36° SSE 23:54:29 10° E visible
18 Jun ? 01:23:22 10° W 01:26:01 52° S 01:28:41 10° ESE visible
18 Jun ? 02:57:39 10° W 03:00:03 27° SSW 03:02:27 10° SE visible
19 Jun ? 00:03:40 10° WSW 00:06:18 47° S 00:08:56 10° E visible
19 Jun ? 01:37:47 10° W 01:40:25 45° S 01:43:02 10° ESE visible
19 Jun ? 03:12:21 10° WSW 03:14:19 18° SSW 03:16:16 10° SSE visible
20 Jun ? 00:18:02 10° WSW 00:20:41 53° S 00:23:21 10° E visible
20 Jun ? 01:52:16 10° W 01:54:46 33° SSW 01:57:16 10° SE visible
20 Jun ? 03:27:45 10° SW 03:28:28 11° SW 03:29:12 10° SSW visible
21 Jun ? 00:32:26 10° W 00:35:05 50° S 00:37:44 10° ESE visible
21 Jun ? 02:06:50 10° W 02:09:03 22° SSW 02:11:17 10° SSE visible
22 Jun ? 00:46:53 10° W 00:49:27 39° SSW 00:52:03 10° ESE visible
22 Jun ? 02:21:43 10° WSW 02:23:16 14° SW 02:23:37 14° SSW visible
22 Jun ? 23:27:06 10° W 23:29:45 52° S 23:32:25 10° ESE visible
23 Jun ? 01:01:23 10° W 01:03:47 28° SSW 01:05:40 14° SSE visible
23 Jun ? 23:41:31 10° W 23:44:09 45° S 23:46:46 10° ESE visible
24 Jun ? 01:16:04 10° WSW 01:18:02 18° SSW 01:18:46 16° S visible
24 Jun ? 23:56:00 10° W 23:58:29 33° SSW 00:01:00 10° SE visible
25 Jun ? 01:31:27 10° SW 01:32:02 11° SW 01:32:02 11° SW visible
26 Jun ? 00:10:34 10° W 00:12:47 23° SSW 00:14:33 13° SSE visible
